1486443600.03,42943,10.25,72706.5,-8.27,-19.81,-20.73,0,*52
1486443601.27,42944,10.25,72704.5,-8.27,-19.75,-20.73,0,*5E
1486443602.52,42945,10.25,72704.3,-8.27,-19.81,-20.73,0,*54
1486443603.75,42946,10.25,72704.3,-8.25,-19.81,-20.73,0,*55
1486443604.98,42947,10.25,72704.0,-8.25,-19.81,-20.73,0,*54
1486443606.22,42948,10.25,72708.3,-8.27,-19.81,-20.69,0,*52
1486443607.47,42949,10.25,72700.3,-8.27,-19.81,-20.69,0,*53
1486443608.72,42950,10.25,72706.3,-8.27,-19.81,-20.73,0,*50
1486443609.97,42951,10.25,72706.8,-8.27,-19.81,-20.73,0,*51
1486443611.23,42952,10.25,72706.8,-8.27,-19.81,-20.73,0,*52
1486443612.48,42953,10.25,72706.5,-8.27,-19.81,-20.73,0,*53
1486443613.71,42954,10.25,72702.3,-8.27,-19.95,-20.73,0,*51
1486443614.97,42955,10.25,72706.0,-8.27,-19.91,-20.83,0,*5B
1486443616.23,42956,10.25,72704.0,-8.27,-19.95,-20.83,0,*5C
1486443617.47,42957,10.25,72704.8,-8.27,-19.91,-20.73,0,*56
1486443618.72,42958,10.25,72702.3,-8.27,-19.91,-20.83,0,*56
1486443619.96,42959,10.25,72710.0,-8.27,-19.91,-20.73,0,*58
1486443621.22,42960,10.25,72704.8,-8.27,-19.91,-20.83,0,*5D
1486443622.45,42961,10.25,72704.0,-8.27,-19.91,-20.73,0,*53
1486443623.69,42962,10.25,72700.5,-8.27,-19.95,-20.69,0,*5F
1486443624.9,42963,10.25,72704.3,-8.25,-19.91,-20.73,0,*53
1486443626.16,42964,10.25,72704.0,-8.27,-19.91,-20.83,0,*59
1486443627.42,42965,10.25,72704.0,-8.27,-19.95,-20.83,0,*5C
1486443628.66,42966,10.25,72706.3,-8.27,-19.95,-20.89,0,*55
1486443629.92,42967,10.25,72704.8,-8.27,-19.91,-20.83,0,*5A
1486443631.18,42968,10.25,72704.5,-8.27,-19.91,-20.83,0,*55
1486443632.39,42969,10.25,72704.3,-8.25,-19.91,-20.89,0,*5C
1486443633.65,42970,10.25,72706.3,-8.27,-19.91,-20.83,0,*5C
1486443634.91,42971,10.25,72702.0,-8.27,-19.91,-20.83,0,*5D
1486443636.17,42972,10.25,72704.3,-8.27,-19.95,-20.83,0,*5A
1486443637.42,42973,10.25,72708.8,-8.27,-19.95,-20.89,0,*51
1486443638.67,42974,10.25,72706.5,-8.27,-20.05,-20.83,0,*5F
1486443639.93,42975,10.25,72704.3,-8.27,-19.95,-20.83,0,*5D
1486443641.19,42976,10.25,72704.0,-8.27,-19.95,-20.83,0,*5E
1486443642.41,42977,10.25,72706.8,-8.29,-19.99,-20.93,0,*5C
1486443643.67,42978,10.25,72702.8,-8.27,-19.95,-20.83,0,*50
1486443644.89,42979,10.19,72702.5,-8.29,-19.95,-20.89,0,*55
1486443646.13,42980,10.25,72706.3,-8.27,-19.91,-20.89,0,*59
1486443647.4,42981,10.25,72704.0,-8.27,-19.95,-20.83,0,*56
1486443648.66,42982,10.25,72704.5,-8.27,-19.95,-20.83,0,*55
1486443649.93,42983,10.25,72706.3,-8.27,-19.81,-20.83,0,*51
1486443651.17,42984,10.25,72704.8,-8.27,-19.91,-20.73,0,*58
1486443652.43,42985,10.25,72708.0,-8.27,-19.95,-20.83,0,*52
1486443653.64,42986,10.25,72706.8,-8.29,-19.95,-20.73,0,*50
1486443654.88,42987,10.25,72706.0,-8.29,-19.95,-20.79,0,*5B
1486443656.12,42988,10.25,72706.0,-8.27,-19.95,-20.73,0,*50
1486443657.36,42989,10.25,72704.5,-8.27,-19.91,-20.73,0,*55
1486443658.59,42990,10.25,72708.8,-8.27,-19.95,-20.73,0,*59
1486443659.83,42991,10.25,72704.8,-8.27,-19.95,-20.73,0,*58
1486443661.06,42992,10.25,72704.3,-8.27,-19.91,-20.69,0,*54
1486443662.32,42993,10.25,72706.5,-8.27,-19.91,-20.83,0,*51
1486443663.56,42994,10.25,72708.8,-8.27,-19.91,-20.89,0,*5C
1486443664.8,42995,10.25,72702.8,-8.27,-19.95,-20.73,0,*5C
1486443666.03,42996,10.25,72706.3,-8.27,-19.91,-20.73,0,*5B
1486443667.3,42997,10.25,72706.0,-8.27,-19.95,-20.83,0,*51
1486443668.51,42998,10.25,72706.8,-8.29,-19.95,-20.73,0,*5F
1486443669.75,42999,10.25,72704.5,-8.27,-19.91,-20.73,0,*54
1486443670.99,43000,10.25,72704.3,-8.27,-19.95,-20.73,0,*58
1486443672.22,43001,10.25,72706.0,-8.27,-19.91,-20.73,0,*5D
1486443673.46,43002,10.25,72704.8,-8.27,-19.91,-20.73,0,*5E
1486443674.69,43003,10.25,72706.3,-8.27,-19.91,-20.73,0,*5F
1486443675.93,43004,10.25,72708.5,-8.27,-19.95,-20.73,0,*5C
1486443677.17,43005,10.25,72706.3,-8.27,-19.95,-20.73,0,*5D
1486443678.4,43006,10.25,72706.8,-8.27,-19.95,-20.73,0,*5E
1486443679.64,43007,10.25,72704.8,-8.27,-19.95,-20.69,0,*54
1486443680.87,43008,10.25,72706.5,-8.27,-19.95,-20.69,0,*5B
1486443682.11,43009,10.25,72708.0,-8.27,-19.91,-20.69,0,*5E
1486443683.32,43010,10.25,72704.0,-8.25,-19.95,-20.73,0,*5B
1486443684.55,43011,10.25,72710.0,-8.27,-19.91,-20.69,0,*57
1486443685.77,43012,10.25,72704.5,-8.25,-19.95,-20.73,0,*59
1486443687.0,43013,10.25,72708.0,-8.27,-19.95,-20.73,0,*5A
1486443688.24,43014,10.25,72704.0,-8.27,-19.91,-20.69,0,*52
1486443689.47,43015,10.25,72704.5,-8.27,-19.91,-20.73,0,*58
1486443690.68,43016,10.25,72708.3,-8.25,-19.91,-20.69,0,*52
1486443691.92,43017,10.25,72704.5,-8.27,-19.95,-20.73,0,*5E
1486443693.15,43018,10.25,72704.0,-8.27,-19.91,-20.69,0,*5E
1486443694.36,43019,10.25,72706.5,-8.25,-19.91,-20.73,0,*56
1486443695.59,43020,10.25,72704.5,-8.27,-19.91,-20.69,0,*55
1486443696.83,43021,10.25,72704.5,-8.27,-19.91,-20.73,0,*5F
1486443698.06,43022,10.25,72706.0,-8.27,-19.95,-20.69,0,*53
1486443699.3,43023,10.25,72704.0,-8.27,-19.95,-20.73,0,*59
1486443700.54,43024,10.25,72704.0,-8.27,-19.95,-20.73,0,*5E
1486443701.77,43025,10.25,72704.0,-8.27,-19.91,-20.69,0,*50
1486443702.99,43026,10.25,72706.3,-8.25,-19.95,-20.73,0,*5E
1486443704.2,43027,10.25,72704.5,-8.25,-19.95,-20.69,0,*54
1486443705.43,43028,10.25,72704.0,-8.27,-19.95,-20.73,0,*52
1486443706.64,43029,10.25,72704.0,-8.25,-20.05,-20.73,0,*52
1486443707.88,43030,10.25,72704.3,-8.27,-19.95,-20.73,0,*5B
1486443709.11,43031,10.25,72706.0,-8.27,-19.91,-20.69,0,*55
1486443710.35,43032,10.25,72706.0,-8.27,-19.95,-20.73,0,*59
1486443711.58,43033,10.25,72702.5,-8.27,-19.95,-20.69,0,*53
1486443712.79,43034,10.25,72702.0,-8.25,-20.05,-20.73,0,*5E
1486443713.99,43035,10.25,72710.3,-8.25,-20.05,-20.73,0,*5F
1486443715.2,43036,10.25,72708.0,-8.25,-20.05,-20.73,0,*5C
1486443716.4,43037,10.25,72712.5,-8.25,-20.05,-20.73,0,*5D
1486443717.61,43038,10.25,72706.3,-8.25,-20.05,-20.69,0,*59
1486443718.83,43039,10.25,72704.0,-8.27,-20.05,-20.69,0,*5A
1486443720.05,43040,10.25,72706.8,-8.21,-19.91,-20.63,0,*5F
1486443721.28,43041,10.25,72704.5,-8.27,-20.09,-20.73,0,*52
1486443722.49,43042,10.25,72706.8,-8.25,-19.95,-20.69,0,*57
1486443723.7,43043,10.25,72704.3,-8.25,-19.95,-20.73,0,*5D
1486443724.92,43044,10.25,72708.5,-8.25,-19.99,-20.63,0,*57
1486443726.15,43045,10.25,72706.3,-8.23,-20.05,-20.69,0,*55
1486443727.37,43046,10.25,72704.8,-8.27,-20.05,-20.69,0,*52
1486443728.62,43047,10.25,72706.5,-8.23,-19.99,-20.63,0,*52
1486443729.84,43048,10.25,72704.5,-8.27,-20.05,-20.73,0,*57
1486443731.05,43049,10.25,72704.8,-8.25,-20.09,-20.73,0,*58
1486443732.25,43050,10.25,72702.0,-8.25,-20.05,-20.73,0,*5C
1486443733.46,43051,10.25,72704.5,-8.25,-20.05,-20.73,0,*5D
1486443734.67,43052,10.25,72704.5,-8.25,-20.05,-20.73,0,*5E
1486443735.87,43053,10.25,72706.5,-8.25,-20.05,-20.69,0,*54
1486443737.07,43054,10.25,72708.0,-8.25,-20.09,-20.69,0,*5F
1486443738.27,43055,10.25,72706.8,-8.25,-20.09,-20.69,0,*5E
1486443739.48,43056,10.25,72704.5,-8.25,-20.09,-20.69,0,*5D
1486443740.68,43057,10.25,72704.8,-8.21,-20.05,-20.69,0,*54
1486443741.88,43058,10.25,72704.3,-8.25,-20.09,-20.69,0,*53
1486443743.11,43059,10.25,72704.5,-8.27,-20.05,-20.69,0,*5C
1486443744.32,43060,10.25,72708.5,-8.25,-20.09,-20.73,0,*53
1486443745.54,43061,10.25,72708.0,-8.27,-20.09,-20.73,0,*50
1486443746.75,43062,10.25,72706.8,-8.25,-20.09,-20.69,0,*5A
1486443747.95,43063,10.25,72704.5,-8.25,-20.09,-20.69,0,*5B
1486443749.15,43064,10.25,72706.0,-8.25,-20.05,-20.69,0,*50
1486443750.36,43065,10.25,72704.0,-8.25,-20.05,-20.69,0,*51
1486443751.56,43066,10.25,72706.5,-8.25,-20.05,-20.69,0,*52
1486443752.76,43067,10.25,72704.3,-8.25,-20.09,-20.69,0,*5F
1486443753.96,43068,10.25,72706.3,-8.25,-20.09,-20.69,0,*50
1486443755.2,43069,10.25,72704.5,-8.25,-20.19,-20.73,0,*5B
1486443756.41,43070,10.25,72706.0,-8.25,-20.25,-20.73,0,*5C
1486443757.61,43071,10.25,72704.8,-8.25,-20.09,-20.73,0,*53
1486443758.84,43072,10.25,72704.0,-8.25,-20.19,-20.73,0,*51
1486443760.07,43073,10.25,72706.0,-8.25,-20.19,-20.73,0,*50
1486443761.31,43074,10.25,72704.8,-8.25,-20.19,-20.69,0,*5C
1486443762.51,43075,10.25,72704.8,-8.25,-20.09,-20.69,0,*5C
1486443763.74,43076,10.25,72708.3,-8.25,-20.19,-20.69,0,*5E
1486443764.97,43077,10.25,72704.8,-8.25,-20.19,-20.69,0,*5F
1486443766.2,43078,10.19,72704.0,-8.25,-20.19,-20.73,0,*5B
1486443767.4,43079,10.25,72704.5,-8.25,-20.09,-20.73,0,*5B
1486443768.64,43080,10.25,72704.5,-8.23,-20.05,-20.63,0,*56
1486443769.87,43081,10.25,72706.5,-8.25,-20.19,-20.69,0,*56
1486443771.1,43082,10.25,72704.8,-8.25,-20.19,-20.73,0,*5E
1486443772.33,43083,10.25,72704.8,-8.23,-20.05,-20.63,0,*55
1486443773.56,43084,10.25,72706.5,-8.25,-20.19,-20.73,0,*58
1486443774.82,43085,10.19,72700.5,-8.23,-20.15,-20.69,0,*58
1486443776.08,43086,10.25,72706.5,-8.23,-20.19,-20.69,0,*57
1486443777.33,43087,10.25,72706.8,-8.23,-20.15,-20.69,0,*5A
1486443778.59,43088,10.25,72704.5,-8.23,-20.15,-20.63,0,*5F
1486443779.85,43089,10.25,72706.3,-8.23,-20.15,-20.63,0,*5E
1486443781.08,43090,10.25,72706.0,-8.25,-20.19,-20.73,0,*5D
1486443782.29,43091,10.25,72704.8,-8.25,-20.25,-20.73,0,*53
1486443783.52,43092,10.25,72706.5,-8.25,-20.19,-20.69,0,*54
1486443784.78,43093,10.25,72704.3,-8.23,-20.19,-20.63,0,*59
1486443786.04,43094,10.25,72704.8,-8.23,-20.15,-20.63,0,*52
1486443787.3,43095,10.25,72704.8,-8.23,-20.15,-20.63,0,*53
1486443788.56,43096,10.25,72704.5,-8.23,-20.19,-20.69,0,*56
1486443789.82,43097,10.25,72704.5,-8.23,-20.15,-20.63,0,*51
1486443791.07,43098,10.25,72704.3,-8.23,-20.15,-20.69,0,*54
1486443792.31,43099,10.25,72706.8,-8.21,-20.15,-20.63,0,*5D
1486443793.57,43100,10.25,72708.5,-8.23,-20.19,-20.69,0,*58
1486443794.82,43101,10.25,72704.8,-8.23,-20.19,-20.69,0,*59
1486443796.05,43102,10.19,72704.0,-8.23,-20.05,-20.63,0,*5D
1486443797.31,43103,10.25,72704.0,-8.23,-20.05,-20.53,0,*5F
1486443798.57,43104,10.25,72706.0,-8.23,-20.15,-20.69,0,*50
1486443799.82,43105,10.25,72704.5,-8.23,-20.19,-20.69,0,*5D
1486443801.08,43106,10.25,72706.0,-8.23,-20.19,-20.63,0,*54
1486443802.34,43107,10.25,72710.3,-8.23,-20.15,-20.69,0,*53
1486443803.58,43108,10.25,72710.3,-8.21,-20.15,-20.63,0,*54
1486443804.84,43109,10.25,72706.8,-8.23,-20.19,-20.63,0,*5B
1486443806.07,43110,10.25,72704.3,-8.21,-20.19,-20.69,0,*5B
1486443807.33,43111,10.25,72704.0,-8.23,-20.19,-20.63,0,*52
1486443808.57,43112,10.25,72702.8,-8.23,-20.25,-20.63,0,*5E
1486443809.82,43113,10.25,72706.5,-8.23,-20.35,-20.69,0,*54
1486443811.05,43114,10.25,72706.8,-8.23,-20.25,-20.69,0,*52
1486443812.29,43115,10.25,72708.8,-8.23,-20.25,-20.69,0,*53
1486443813.54,43116,10.25,72706.8,-8.23,-20.19,-20.69,0,*5F
1486443814.8,43117,10.25,72710.3,-8.23,-20.19,-20.63,0,*54
1486443816.0,43118,10.25,72708.5,-8.25,-20.29,-20.69,0,*54
1486443817.26,43119,10.25,72708.0,-8.23,-20.19,-20.63,0,*5A
1486443818.52,43120,10.19,72704.5,-8.23,-20.19,-20.63,0,*50
1486443819.78,43121,10.25,72706.0,-8.23,-20.19,-20.63,0,*51
1486443821.04,43122,10.25,72704.0,-8.23,-20.19,-20.63,0,*52
1486443822.3,43123,10.25,72706.5,-8.23,-20.35,-20.69,0,*57
1486443823.54,43124,10.25,72706.5,-8.23,-20.25,-20.63,0,*5B
1486443824.74,43125,10.25,72706.0,-8.25,-20.29,-20.73,0,*51
1486443825.95,43126,10.25,72704.3,-8.25,-20.39,-20.73,0,*53
1486443827.23,43127,10.25,72706.3,-8.23,-20.35,-20.79,0,*52
1486443828.48,43128,10.25,72706.0,-8.23,-20.35,-20.69,0,*5C
1486443829.71,43129,10.25,72708.0,-8.23,-20.25,-20.69,0,*5C
1486443830.95,43130,10.19,72706.3,-8.23,-20.25,-20.69,0,*54
1486443832.18,43131,10.25,72706.0,-8.21,-20.19,-20.63,0,*52
1486443833.42,43132,10.25,72704.0,-8.23,-20.25,-20.63,0,*5C
1486443834.66,43133,10.25,72710.8,-8.23,-20.25,-20.63,0,*5D
1486443835.91,43134,10.25,72710.3,-8.23,-20.35,-20.69,0,*51
1486443837.11,43135,10.25,72708.0,-8.25,-20.29,-20.69,0,*5B
1486443838.35,43136,10.25,72708.8,-8.23,-20.25,-20.63,0,*58
1486443839.59,43137,10.25,72706.8,-8.23,-20.25,-20.63,0,*59
1486443840.82,43138,10.25,72704.3,-8.23,-20.25,-20.63,0,*56
1486443842.02,43139,10.25,72708.5,-8.25,-20.29,-20.69,0,*57
1486443843.22,43140,10.25,72706.3,-8.25,-20.29,-20.73,0,*52
1486443844.46,43141,10.25,72706.8,-8.27,-20.39,-20.69,0,*5B
1486443845.67,43142,10.25,72704.3,-8.25,-20.39,-20.73,0,*51
1486443846.89,43143,10.25,72704.8,-8.27,-20.29,-20.69,0,*58
1486443848.1,43144,10.25,72704.8,-8.25,-20.39,-20.69,0,*5C
1486443849.31,43145,10.25,72704.5,-8.25,-20.29,-20.59,0,*5F
1486443850.52,43146,10.25,72708.3,-8.25,-20.39,-20.69,0,*5E
1486443851.73,43147,10.25,72706.5,-8.25,-20.25,-20.69,0,*52
1486443852.94,43148,10.25,72708.8,-8.25,-20.25,-20.59,0,*5E
1486443854.15,43149,10.25,72708.3,-8.25,-20.25,-20.59,0,*5F
1486443855.38,43150,10.25,72706.8,-8.25,-20.19,-20.59,0,*58
1486443856.59,43151,10.25,72710.3,-8.25,-20.29,-20.59,0,*5A
1486443857.8,43152,10.25,72704.8,-8.25,-20.39,-20.73,0,*50
1486443859.01,43153,10.25,72710.3,-8.25,-20.39,-20.69,0,*5A
1486443860.25,43154,10.25,72704.5,-8.25,-20.25,-20.53,0,*59
1486443861.46,43155,10.25,72704.8,-8.25,-20.25,-20.59,0,*52
1486443862.69,43156,10.25,72706.0,-8.27,-20.29,-20.59,0,*5F
1486443863.89,43157,10.25,72706.0,-8.25,-20.29,-20.59,0,*5C
1486443865.18,43158,10.25,72706.8,-8.23,-20.35,-20.49,0,*59
1486443866.38,43159,10.25,72708.0,-8.25,-20.29,-20.59,0,*52
1486443867.61,43160,10.25,72708.8,-8.25,-20.29,-20.53,0,*52
1486443868.82,43161,10.25,72704.8,-8.25,-20.25,-20.59,0,*55
1486443870.04,43162,10.25,72706.0,-8.25,-20.25,-20.59,0,*56
1486443871.27,43163,10.25,72706.0,-8.25,-20.29,-20.53,0,*51
1486443872.55,43164,10.25,72708.8,-8.23,-20.19,-20.49,0,*58
1486443873.76,43165,10.25,72706.3,-8.25,-20.25,-20.59,0,*51
1486443874.99,43166,10.25,72706.8,-8.25,-20.29,-20.53,0,*54
1486443876.23,43167,10.25,72704.0,-8.25,-20.39,-20.53,0,*54
1486443877.5,43168,10.25,72706.0,-8.23,-20.25,-20.49,0,*5B
1486443878.7,43169,10.25,72706.8,-8.25,-20.29,-20.59,0,*51
1486443879.93,43170,10.25,72708.5,-8.25,-20.29,-20.53,0,*53
1486443881.14,43171,10.25,72708.3,-8.25,-20.29,-20.59,0,*58
1486443882.35,43172,10.25,72706.3,-8.25,-20.25,-20.43,0,*5C
1486443883.56,43173,10.25,72704.8,-8.25,-20.25,-20.43,0,*5D
1486443884.8,43174,10.25,72706.5,-8.25,-20.19,-20.39,0,*58
1486443886.01,43175,10.25,72710.3,-8.25,-20.25,-20.43,0,*5B
1486443887.22,43176,10.25,72704.8,-8.25,-20.39,-20.59,0,*5E
1486443888.45,43177,10.25,72706.8,-8.25,-20.29,-20.53,0,*54
1486443889.66,43178,10.25,72706.5,-8.25,-20.25,-20.43,0,*56
1486443890.93,43179,10.25,72706.8,-8.23,-20.25,-20.53,0,*50
1486443892.19,43180,10.25,72704.3,-8.23,-20.25,-20.53,0,*56
1486443893.45,43181,10.25,72704.5,-8.23,-20.25,-20.49,0,*5C
1486443894.67,43182,10.25,72704.0,-8.25,-20.39,-20.59,0,*55
1486443895.91,43183,10.25,72704.8,-8.25,-20.39,-20.53,0,*5E
1486443897.14,43184,10.25,72706.8,-8.25,-20.29,-20.53,0,*58
1486443898.39,43185,10.25,72708.3,-8.27,-20.29,-20.53,0,*5B
1486443899.65,43186,10.25,72708.3,-8.23,-20.25,-20.49,0,*5B
1486443900.94,43187,10.25,72704.0,-8.23,-20.35,-20.49,0,*5B
1486443902.14,43188,10.25,72708.8,-8.25,-20.29,-20.43,0,*55
1486443903.38,43189,10.25,72704.0,-8.27,-20.39,-20.43,0,*57
1486443904.61,43190,10.25,72706.3,-8.25,-20.29,-20.53,0,*5D
1486443905.85,43191,10.25,72710.0,-8.25,-20.39,-20.53,0,*5D
1486443907.08,43192,10.25,72706.8,-8.25,-20.29,-20.53,0,*5F
1486443908.32,43193,10.25,72710.3,-8.25,-20.39,-20.53,0,*5F
1486443909.6,43194,10.25,72708.5,-8.23,-20.35,-20.49,0,*59
1486443910.86,43195,10.25,72708.8,-8.27,-20.29,-20.53,0,*5A
1486443912.12,43196,10.19,72704.0,-8.27,-20.39,-20.53,0,*58
1486443913.36,43197,10.25,72706.3,-8.25,-20.39,-20.53,0,*5B
1486443914.59,43198,10.25,72710.8,-8.25,-20.29,-20.53,0,*55
1486443915.84,43199,10.25,72704.3,-8.23,-20.25,-20.35,0,*5E
1486443917.05,43200,10.25,72710.3,-8.25,-20.29,-20.43,0,*56
1486443918.25,43201,10.25,72706.3,-8.25,-20.29,-20.43,0,*57
1486443919.46,43202,10.25,72706.8,-8.25,-20.29,-20.43,0,*54
1486443920.66,43203,10.25,72706.3,-8.25,-20.29,-20.43,0,*55
1486443921.9,43204,10.25,72706.3,-8.27,-20.39,-20.43,0,*51
1486443923.12,43205,10.25,72706.8,-8.25,-20.39,-20.39,0,*5F
1486443924.34,43206,10.25,72708.8,-8.25,-20.39,-20.43,0,*51
1486443925.58,43207,10.25,72706.5,-8.25,-20.39,-20.53,0,*51
1486443926.82,43208,10.25,72704.3,-8.27,-20.39,-20.39,0,*50
1486443928.06,43209,10.25,72710.0,-8.27,-20.39,-20.43,0,*5C
1486443929.27,43210,10.25,72706.8,-8.25,-20.39,-20.43,0,*56
1486443930.5,43211,10.25,72708.0,-8.27,-20.29,-20.39,0,*59
1486443931.71,43212,10.25,72706.5,-8.25,-20.29,-20.43,0,*55
1486443932.91,43213,10.25,72706.8,-8.25,-20.29,-20.39,0,*59
1486443934.13,43214,10.19,72704.8,-8.25,-20.39,-20.39,0,*5F
1486443935.34,43215,10.25,72708.0,-8.25,-20.29,-20.39,0,*5F
1486443936.55,43216,10.25,72710.0,-8.25,-20.25,-20.43,0,*5D
1486443937.76,43217,10.25,72708.3,-8.25,-20.25,-20.29,0,*50
1486443938.99,43218,10.25,72710.5,-8.23,-20.25,-20.25,0,*55
1486443940.2,43219,10.25,72710.5,-8.25,-20.29,-20.25,0,*5E
1486443941.41,43220,10.25,72708.5,-8.25,-20.39,-20.29,0,*59
1486443942.62,43221,10.25,72708.0,-8.25,-20.39,-20.43,0,*54
1486443943.86,43222,10.25,72708.5,-8.25,-20.39,-20.53,0,*56
1486443945.08,43223,10.25,72710.0,-8.25,-20.39,-20.43,0,*56
1486443946.3,43224,10.25,72708.0,-8.25,-20.39,-20.39,0,*5C
1486443947.5,43225,10.25,72708.3,-8.25,-20.29,-20.39,0,*5C
1486443948.71,43226,10.25,72706.8,-8.25,-20.29,-20.39,0,*5F
1486443949.93,43227,10.25,72710.3,-8.25,-20.39,-20.43,0,*52
1486443951.15,43228,10.25,72708.3,-8.25,-20.39,-20.39,0,*50
1486443952.36,43229,10.25,72708.3,-8.25,-20.39,-20.43,0,*5C
1486443953.6,43230,10.25,72706.0,-8.27,-20.39,-20.43,0,*56
1486443954.84,43231,10.19,72704.5,-8.25,-20.39,-20.53,0,*54
1486443956.06,43232,10.25,72708.3,-8.25,-20.39,-20.39,0,*5B
1486443957.3,43233,10.25,72710.3,-8.27,-20.39,-20.39,0,*58
1486443958.52,43234,10.25,72708.3,-8.25,-20.39,-20.39,0,*5D
1486443959.75,43235,10.25,72710.0,-8.27,-20.29,-20.39,0,*5F
1486443960.96,43236,10.25,72704.5,-8.25,-20.39,-20.43,0,*52
1486443962.2,43237,10.25,72710.0,-8.27,-20.39,-20.43,0,*51
1486443963.42,43238,10.25,72708.3,-8.25,-20.39,-20.39,0,*51
1486443964.64,43239,10.25,72706.8,-8.25,-20.39,-20.39,0,*50
1486443965.87,43240,10.25,72710.3,-8.27,-20.39,-20.29,0,*5D
1486443967.11,43241,10.25,72708.5,-8.27,-20.39,-20.43,0,*50
1486443968.35,43242,10.25,72704.8,-8.27,-20.43,-20.39,0,*53
1486443969.57,43243,10.25,72704.5,-8.25,-20.39,-20.39,0,*5D
1486443970.81,43244,10.25,72706.3,-8.27,-20.39,-20.39,0,*58
1486443972.03,43245,10.25,72704.0,-8.25,-20.39,-20.39,0,*5B
1486443973.25,43246,10.25,72706.3,-8.25,-20.39,-20.39,0,*58
1486443974.47,43247,10.25,72706.0,-8.25,-20.43,-20.39,0,*54
1486443975.72,43248,10.25,72714.0,-8.27,-20.43,-20.39,0,*59
1486443976.96,43249,10.25,72706.5,-8.27,-20.39,-20.39,0,*55
1486443978.2,43250,10.25,72710.8,-8.27,-20.39,-20.39,0,*5D
1486443979.44,43251,10.25,72704.8,-8.27,-20.39,-20.39,0,*5C
1486443980.65,43252,10.25,72708.0,-8.25,-20.39,-20.29,0,*5C
1486443981.88,43253,10.25,72708.3,-8.27,-20.39,-20.29,0,*5F
1486443983.09,43254,10.25,72706.3,-8.25,-20.39,-20.29,0,*5A
1486443984.31,43255,10.25,72710.0,-8.25,-20.39,-20.29,0,*5B
1486443985.55,43256,10.25,72708.0,-8.27,-20.39,-20.39,0,*5B
1486443986.77,43257,10.25,72706.3,-8.27,-20.29,-20.29,0,*5A
1486443988.0,43258,10.25,72708.3,-8.27,-20.29,-20.25,0,*59
1486443989.21,43259,10.25,72706.3,-8.25,-20.39,-20.29,0,*57
1486443990.42,43260,10.25,72708.3,-8.25,-20.39,-20.25,0,*51
1486443991.63,43261,10.25,72710.5,-8.25,-20.29,-20.25,0,*51
1486443992.86,43262,10.25,72708.0,-8.27,-20.39,-20.25,0,*51
1486443994.06,43263,10.25,72710.8,-8.25,-20.29,-20.29,0,*5F
1486443995.28,43264,10.25,72708.3,-8.25,-20.39,-20.25,0,*55
1486443996.51,43265,10.25,72708.8,-8.27,-20.39,-20.29,0,*5A
1486443997.75,43266,10.25,72708.8,-8.27,-20.39,-20.29,0,*59
1486443998.97,43267,10.25,72706.0,-8.27,-20.29,-20.25,0,*55
1486444000.21,43268,10.25,72706.5,-8.27,-20.39,-20.25,0,*5B
1486444001.44,43269,10.25,72710.0,-8.27,-20.29,-20.25,0,*5B
1486444002.65,43270,10.25,72708.0,-8.25,-20.39,-20.29,0,*5C
1486444003.85,43271,10.25,72708.3,-8.25,-20.29,-20.25,0,*50
1486444005.1,43272,10.25,72708.3,-8.27,-20.29,-20.19,0,*5E
1486444006.31,43273,10.25,72706.8,-8.25,-20.29,-20.25,0,*52
1486444007.55,43274,10.19,72706.0,-8.27,-20.39,-20.25,0,*56
1486444008.78,43275,10.25,72710.0,-8.27,-20.39,-20.25,0,*57
1486444009.98,43276,10.25,72708.8,-8.25,-20.29,-20.09,0,*59
1486444011.19,43277,10.25,72706.0,-8.25,-20.25,-20.09,0,*54
1486444012.43,43278,10.25,72710.0,-8.25,-20.39,-20.19,0,*57
1486444013.66,43279,10.25,72706.5,-8.25,-20.39,-20.19,0,*56
1486444014.92,43280,10.25,72706.8,-8.27,-20.25,-20.19,0,*5F
1486444016.17,43281,10.25,72708.5,-8.27,-20.29,-20.19,0,*52
1486444017.37,43282,10.25,72708.8,-8.25,-20.29,-20.25,0,*5C
1486444018.61,43283,10.25,72710.0,-8.27,-20.39,-20.25,0,*5E
1486444019.82,43284,10.25,72708.8,-8.25,-20.39,-20.29,0,*57
1486444021.04,43285,10.25,72704.3,-8.25,-20.39,-20.25,0,*5A
1486444022.25,43286,10.25,72708.8,-8.25,-20.39,-20.25,0,*59
1486444023.51,43287,10.25,72710.5,-8.27,-20.39,-20.19,0,*55
1486444024.77,43288,10.25,72708.8,-8.27,-20.39,-20.19,0,*5A
1486444026.0,43289,10.25,72706.5,-8.25,-20.29,-20.19,0,*58
1486444027.26,43290,10.25,72704.8,-8.27,-20.39,-20.19,0,*53
1486444028.49,43291,10.25,72710.3,-8.27,-20.29,-20.25,0,*5C
1486444029.71,43292,10.25,72708.0,-8.27,-20.29,-20.25,0,*5F
1486444030.94,43293,10.25,72708.3,-8.27,-20.29,-20.09,0,*50
1486444032.14,43294,10.25,72708.0,-8.25,-20.29,-20.09,0,*55
1486444033.36,43295,10.25,72710.8,-8.27,-20.29,-20.25,0,*58
1486444034.59,43296,10.25,72706.5,-8.27,-20.29,-20.09,0,*55
1486444035.85,43297,10.25,72710.8,-8.27,-20.39,-20.19,0,*54
1486444037.07,43298,10.25,72708.8,-8.27,-20.29,-20.09,0,*5B
1486444038.3,43299,10.19,72704.0,-8.27,-20.29,-20.09,0,*5A
1486444039.56,43300,10.25,72710.5,-8.27,-20.39,-20.19,0,*5B
1486444040.82,43301,10.25,72710.3,-8.27,-20.39,-20.19,0,*5A
1486444042.08,43302,10.25,72710.8,-8.27,-20.39,-20.19,0,*59
1486444043.29,43303,10.25,72710.8,-8.25,-20.39,-20.25,0,*55
1486444044.53,43304,10.25,72708.8,-8.27,-20.39,-20.25,0,*50
1486444045.77,43305,10.25,72710.3,-8.27,-20.39,-20.25,0,*51
1486444047.01,43306,10.25,72708.0,-8.27,-20.39,-20.25,0,*52
1486444048.24,43307,10.19,72704.5,-8.27,-20.39,-20.25,0,*53
1486444049.5,43308,10.25,72710.5,-8.27,-20.39,-20.19,0,*53
1486444050.74,43309,10.25,72710.0,-8.27,-20.39,-20.09,0,*53
1486444051.96,43310,10.25,72708.5,-8.27,-20.29,-20.09,0,*5A
1486444053.22,43311,10.25,72708.3,-8.27,-20.39,-20.19,0,*5B
1486444054.42,43312,10.25,72708.8,-8.25,-20.29,-20.09,0,*5A
1486444055.65,43313,10.25,72710.3,-8.27,-20.29,-20.09,0,*59
1486444056.87,43314,10.25,72708.3,-8.27,-20.29,-20.09,0,*5E
1486444058.09,43315,10.25,72708.0,-8.27,-20.29,-20.09,0,*5F
1486444059.32,43316,10.19,72706.8,-8.29,-20.43,-20.25,0,*50
1486444060.55,43317,10.25,72706.3,-8.29,-20.35,-20.25,0,*50
1486444061.78,43318,10.25,72710.0,-8.33,-20.35,-20.25,0,*54
1486444063.03,43319,10.25,72708.8,-8.29,-20.35,-20.15,0,*5D
1486444064.27,43320,10.25,72710.3,-8.29,-20.35,-20.25,0,*54
1486444065.5,43321,10.25,72710.0,-8.29,-20.35,-20.25,0,*55
1486444066.74,43322,10.25,72712.3,-8.29,-20.35,-20.25,0,*56
1486444067.97,43323,10.25,72708.0,-8.33,-20.43,-20.15,0,*5E
1486444069.21,43324,10.19,72704.0,-8.29,-20.43,-20.15,0,*52
1486444070.46,43325,10.19,72706.0,-8.29,-20.35,-20.15,0,*52
1486444071.71,43326,10.25,72706.8,-8.29,-20.35,-20.15,0,*51
1486444072.96,43327,10.25,72708.8,-8.29,-20.35,-20.15,0,*50
1486444074.18,43328,10.19,72706.5,-8.33,-20.43,-20.25,0,*56
1486444075.42,43329,10.25,72710.0,-8.29,-20.43,-20.15,0,*5F
1486444076.67,43330,10.25,72710.0,-8.29,-20.35,-20.15,0,*56
1486444077.9,43331,10.25,72708.8,-8.33,-20.35,-20.25,0,*5F
1486444079.13,43332,10.25,72708.0,-8.33,-20.35,-20.25,0,*5C
1486444080.37,43333,10.19,72706.3,-8.29,-20.43,-20.15,0,*54
1486444081.61,43334,10.25,72708.0,-8.33,-20.43,-20.15,0,*58
1486444082.83,43335,10.25,72710.0,-8.33,-20.43,-20.25,0,*5A
1486444084.06,43336,10.19,72706.0,-8.33,-20.35,-20.25,0,*58
1486444085.28,43337,10.25,72710.0,-8.33,-20.43,-20.25,0,*58
1486444086.49,43338,10.25,72708.5,-8.33,-20.43,-20.25,0,*57
1486444087.73,43339,10.19,72704.3,-8.33,-20.43,-20.15,0,*55
1486444088.96,43340,10.19,72706.0,-8.33,-20.35,-20.25,0,*59
1486444090.18,43341,10.19,72706.8,-8.33,-20.43,-20.25,0,*59
1486444091.4,43342,10.25,72710.5,-8.33,-20.43,-20.25,0,*5A